FENGYUN 1C DEB

Satellite information

Favourite Embed

Satellite Type and Status

DEBRISIN ORBIT

Key statistics

Satellite FENGYUN 1C DEB at a glance.

Uptime

9610

Days in orbit

Revolutions

≈ 14.0

Per day

Orbit

SSO

Sun Synchronous Orbit

Inclination

97.6

Latest

Satellite identification and parameters

Extended collection of information and parameters for FENGYUN 1C DEB.

Object identification

Identified? True

Debris? True

Object name: FENGYUN 1C DEB

International designator: 1999-025DSK

Object number (NORAD): 36162

Object ID (CCSDS): 36162

Country: PEOPLES REPUBLIC OF CHINA (PRC)

Current information (Y/N): Y

RCS size: SMALL

Orbital parameters

Period: 102.838 minutes

Inclination: 97.6139 deg

SMA: 7271.036 km

Apoapsis: 1085.809 km

Periapsis: 699.993 km

RAAN: 44.2064 deg

Eccentricy: 0.026531

Argument of periapsis: 111.0788 deg

Mean anomaly: 251.8966 deg

Mean motion: 14.00258882 rev/day

Mean motion (dot): 0.00007371 rev/day2

B* drag term: 0.003689 1/REarth

Two-line elements (TLE)

Creation date: Aug. 15, 2025, 10:36 p.m.

Reference frame: TEME

Reference center: EARTH

Epoch: Aug. 13, 2025, 5:07 p.m. UTC

TLE line 0: 0 FENGYUN 1C DEB

TLE line 1: 1 36162U 99025DSK 25225.71388785 .00007371 00000-0 36890-2 0 9992

TLE line 2: 2 36162 97.6139 44.2064 0265310 111.0788 251.8966 14.00258882889941

Live tracking on map

Real-time ground track for satellite FENGYUN 1C DEB.

In-orbit conjunctions

A list of the most updated potential collisions computed for object FENGYUN 1C DEB.

Target Orbit TCA Probability of collision Miss distance Type
CZ-6A DEB LEO 2025-02-12 12:45:58 0.0002477349 783.0 (m) DEBRIS
CZ-4C DEB LEO 2024-09-27 22:08:28 0.0006418364 306.0 (m) DEBRIS

Associated space launch

Chinese polar orbiting meteorological satellite

FENGYUN 1C DEB was lifted into orbit during the mission ‘Long March 4B | Feng Yun 1C’, on board a Long March 4B space rocket.

The launch took place on May 10, 1999, 1:33 a.m. from Launch Complex 7.

For more information about the launch, click the button.

Launch to space Long March 4B | Feng Yun 1C
Long March 4B | Feng Yun 1C

Agency: N/A

Status: Launch Successful

Launch date: May 10, 1999, 1:33 a.m. UTC

Rocket: Long March 4B

Launch pad: Launch Complex 7

Location: Taiyuan Satellite Launch Center, People's Republic of China

...

Latest news about this satellite

There are no fresh news available about this satellite. Check back as we update our databases every day.


Newsletter sign-up

Weekly statistics, charts and insights to help you stay on top of the space industry.